Volver al catálogo

STARLINK-31692

ActivoComunicacionesVLEO
NORAD 59577·PAYLOAD·🇺🇸 United States

Lanzado Apr 23, 2024 desde Cape Canaveral Space Force Station

Loading…

Próximos Pases (próximas 24 horas)

TLE

ActualizadoSource: CelesTrak SupGP

Época: Sep 14, 2026, 22:20 UTC

1 59577C 24076P   26257.93104167  .00081488  00000+0  17242-2 0  2578
2 59577  42.9980  10.7417 0017561 342.6285  39.8734 15.44059842    14

Sigue STARLINK-31692 en tiempo real con AllMySat

Download on the App Store